Other Public Products
Issued by NWS Grand Forks, ND

Home | Current Version | Previous Version | Graphics & Text | Print | Product List | Glossary On
Versions: 1 2 3 4 5 6 7 8 9 10 11 12 13 14 15 16 17 18 19 20 21 22 23 24 25 26 27 28 29 30 31 32 33 34 35 36 37 38 39 40 41 42 43 44 45 46 47 48 49 50
000
FPUS83 KFGF 151910
OPUFGF
PRAIRIE TO PINES WEATHER ROUNDUP
NATIONAL WEATHER SERVICE EASTERN NORTH DAKOTA/GRAND FORKS ND
100 PM CST FRI DEC 15 2017

 **SATELLITE DATA USED TO AUGMENT SKY COVER AT AUTOMATED STATIONS**
 *****  WEATHER ACROSS EASTERN NORTH DAKOTA  *****

CITY           SKY/WX    TMP DP  RH WIND       PRES   REMARKS
GRAND FORKS    CLOUDY    20  17  88 S15       29.74F WCI   6
GRND FORKS AFB CLOUDY    21  18  86 S14       29.72F WCI   8
GRND FORKS NWS NOT AVBL
BUXTON         NOT AVBL
DEVILS LAKE    CLOUDY    28  25  88 SE6       29.64F WCI  22
FARGO          CLOUDY    24  20  84 SE8       29.74F WCI  15
WAHPETON ARPT  CLOUDY    28  23  80 S13       29.76F WCI  18
$$

 *****  WEATHER ACROSS CENTRAL AND WESTERN NORTH DAKOTA  *****

CITY           SKY/WX    TMP DP  RH WIND       PRES   REMARKS
JAMESTOWN      CLOUDY    30  27  88 S8        29.65F WCI  22
BISMARCK       CLOUDY    39  25  57 SW7       29.62F
MINOT          CLOUDY    38  25  59 SW9       29.56F
MINOT AFB      CLOUDY    37  25  62 W8        29.54F
GARRISON         N/A     38  24  57 W10       29.58F
WILLISTON      PTSUNNY   37  28  70 W6        29.59F
DICKINSON      FAIR      44  24  45 W22       29.59F
HETTINGER      FAIR      45  23  42 W22G29    29.65F
$$

 *****  OTHER OBSERVATIONS NORTHEAST NORTH DAKOTA  *****

CITY           SKY/WX    TMP DP  RH WIND       PRES   REMARKS
WALHALLA       FAIR      21  21 100 SE10      29.68F FOG     WCI  10
LANGDON        MOCLDY    25  27 100 S10       29.64F FOG     WCI  15
CAVALIER       MOCLDY    19  18  93 S12       29.70F FOG     WCI   7
GRAFTON        CLOUDY    19  18  93 S17       29.74F FOG     WCI   4
CANDO          MIX PCPN  28  30 100 S7        29.64F WCI  21
FORT TOTTEN      N/A     29  27  94 S6        29.95S WCI  23
ROLLA          LGT SNOW  27  27 100 SW9       29.59F WCI  17
RUGBY          FAIR      32  28  86 S8        29.59F WCI  25
 ***** THE ABOVE OBSERVATIONS ARE NON NWS ARE NOT QUALITY
        CONTROLLED AND MAY MIS-REPORT RAIN FOR SNOW...
$$

 *****  OTHER OBSERVATIONS SOUTHEAST NORTH DAKOTA *****

CITY           SKY/WX    TMP DP  RH WIND       PRES   REMARKS
COOPERSTOWN    FAIR      25  25 100 S10       29.68F WCI  15
VALLEY CITY    CLOUDY    27  27 100 S9        29.71F WCI  17
OAKES            N/A     30  30 100 S10       29.69F WCI  21
GWINNER          N/A     32  28  86 S8        29.70F WCI  25
BUFFALO        NOT AVBL
WYNDMERE       NOT AVBL
 ***** THE ABOVE OBSERVATIONS ARE NON NWS ARE NOT QUALITY
       CONTROLLED AND MAY MIS-REPORT RAIN FOR SNOW...
$$

  *****  WEATHER ACROSS NORTHERN MINNESOTA  *****

CITY           SKY/WX    TMP DP  RH WIND       PRES   REMARKS
FLAG ISLAND    CLOUDY     7   1  78 S9        29.76F WCI  -7
WARROAD        FLURRIES  10   7  85 S3        29.76F
ROSEAU         FLURRIES  12   7  79 S6        29.75F WCI   3
HALLOCK        CLOUDY    18  14  86 SE14      29.74F WCI   4
THF RVR FALLS  CLOUDY    16  12  84 S8        29.74F WCI   5
HALSTAD        NOT AVBL
FOSSTON        CLOUDY    16  10  79 S7        29.74F WCI   6
BAUDETTE       CLOUDY     8   3  80 SE6       29.75F WCI  -2
WASKISH        CLOUDY    12   7  79 CALM      29.76F
CROOKSTON      CLOUDY    19  16  86 S10       29.76F WCI   8
$$
  *****  WEATHER ACROSS CENTRAL AND WEST MINNESOTA  *****

CITY           SKY/WX    TMP DP  RH WIND       PRES   REMARKS
BEMIDJI        CLOUDY    12   7  78 SE3       29.74F
PARK RAPIDS    CLOUDY    15  10  80 S3        29.74F
WADENA         CLOUDY    19  12  73 CALM      29.75F
DETROIT LAKES  CLOUDY    21  18  86 SE8       29.74F WCI  12
MOORHEAD       CLOUDY    23  18  80 SE10      29.75F WCI  12
FERGUS FALLS   CLOUDY    25  19  80 S9        29.78F WCI  15
ELBOW LAKE     CLOUDY    25  22  86 E8        29.76F WCI  17
MORRIS MN      CLOUDY    27  25  93 S8        29.76F WCI  18
STAPLES        CLOUDY    18  10  73 CALM      29.77F
WHEATON        CLOUDY    28  25  86 SE9       29.78F WCI  20
$$
  *****  WEATHER ELSEWHERE ACROSS MINNESOTA  *****

CITY           SKY/WX    TMP DP  RH WIND       PRES   REMARKS
DULUTH         PTSUNNY   11   3  70 W9        29.76F WCI  -2
INTRNTL FALLS  CLOUDY     8   2  76 VRB5      29.78F WCI   0
ELY            CLOUDY     9   1  72 W6        29.75F WCI  -1
CLOQUET        CLOUDY    14   3  62 W5        29.77F WCI   6
BRAINERD       CLOUDY    19  10  68 SW6       29.79F WCI  11
HIBBING        CLOUDY     9   2  73 VRB5      29.77F WCI   1
ALEXANDRIA     CLOUDY    24  18  77 S7        29.76F WCI  16
SAINT CLOUD    FAIR      22  16  78 S5        29.81F WCI  16
MINNEAPOLIS    CLOUDY    26  20  77 NE5       29.84F WCI  20
$$

  *****  WEATHER ACROSS SOUTH DAKOTA  *****

CITY           SKY/WX    TMP DP  RH WIND       PRES   REMARKS
SIOUX FALLS    PTSUNNY   39  26  59 W7        29.80F
BROOKINGS      CLOUDY    36  27  69 W8        29.76F
WATERTOWN      PTSUNNY   34  29  82 SW15      29.73F WCI  24
HURON          PTSUNNY   41  26  55 S12       29.75F
SISSETON         N/A     31  29  92 SE9       29.73F WCI  23
ABERDEEN       PTSUNNY   37  27  67 SW10      29.71F
MITCHELL       PTSUNNY   39  26  59 SW10      29.80F
PIERRE         FAIR      41  25  53 W12       29.72F
MOBRIDGE       FAIR      40  26  57 SW8       29.65F
RAPID CITY     FAIR      54  15  21 S10       29.75F
$$

  *****  SOME WEATHER IN NEARBY STATES *****

CITY           SKY/WX    TMP DP  RH WIND       PRES   REMARKS
GLASGOW MT     FAIR      37  23  56 W5        29.64F
GREAT FALLS MT FAIR      47  14  26 SW37G51   29.76F
CHEYENNE WY    FAIR      50  15  24 W26G39    29.93F
SCOTTSBLUFF NE FAIR      54  14  20 W20G26    29.89F
OMAHA NE       FAIR      45  25  45 SW16G22   29.94F
DES MOINES IA  CLOUDY    43  21  41 W23G32    29.92F
DAVENPORT IA   CLOUDY    34  21  59 SW16G25   29.95F WCI  24
CHICAGO IL     CLOUDY    31  17  56 W14       29.89F WCI  21
EAU CLAIRE WI  CLOUDY    20  13  74 NW6       29.83F WCI  12
LA CROSSE WI   CLOUDY    31  22  69 CALM      29.84F
$$

  *****  SOME NATIONAL WEATHER *****

CITY           SKY/WX    TMP DP  RH WIND       PRES   REMARKS
LA GUARDIA NY  CLOUDY    29   8  41 SW7       29.96F WCI  22
RALEIGH NC     CLOUDY    43  27  53 W8        29.94R
ATLANTA GA     CLOUDY    40  25  55 W13       30.08R
NEW ORLEANS LA LGT RAIN  48  37  65 N9        30.20F
OKLAHOMA CITY  FAIR      48  22  35 W9        30.22F
ALBUQUERQUE NM FAIR      41  18  39 W3        30.28F
SALT LAKE CITY PTSUNNY   40  26  57 NW3       30.27F
LOS ANGELES CA FAIR      78  17  10 CALM      30.13F
BOISE ID       CLOUDY    26  21  81 S6        30.28F WCI  19
SEATTLE WA     CLOUDY    42  37  82 S5        30.19F
$$

*** WEATHER ACROSS MANITOBA...SASKATCHEWAN AND ONTARIO ***
                ***ONTARIO***

CITY           SKY/WX    TMP DP  RH WIND       PRES   REMARKS
GERALDTON      FLURRIES   0  -9  65 N5        29.73F WCI -10
THUNDER BAY    PTSUNNY   12   1  62 NW10      29.79F WCI  -1
SIOUX LOOKOUT  CRYSTALS  -2  -9  71 N3        29.77F
TORONTO        FLURRIES  23  16  74 SW6       29.75F WCI  16
BIG TROUT LK   FLURRIES  -8 -13  77 NW9       29.86S WCI -25
PICKLE LAKE    CRYSTALS -11 -18  70 N3        29.81S
DRYDEN         SUNNY      0  -4  85 CALM      29.75F
KENORA         FLURRIES   1  -2  85 NE3       29.75F
$$
                *** MANITOBA***

CITY           SKY/WX    TMP DP  RH WIND       PRES   REMARKS
BRANDON        LGT SNOW  21  19  93 E9        29.59F WCI  11
DAUPHIN        LGT SNOW  18  16  93 E12       29.62F WCI   5
ISLAND LAKE    SUNNY     -9 -13  84 SE6       29.87F WCI -23
PILOT MOUND      N/A     25  23  93 S9          N/A  WCI  15
THE PAS        CLOUDY     3   0  85 E13       29.70F WCI -14
THOMPSON       NOT AVBL
WINNIPEG       LGT SNOW  14   9  79 SE8       29.74F DRFTSNOWWCI   3
LYNN LAKE      CLEAR    -11 -15  84 E8        29.74F WCI -28
CHURCHILL      FLURRIES  -9 -15  77 W7        29.95F WCI -24
GILLAM         PTCLDY   -17 -22  76 W5        29.91S WCI -29
$$
                ***SASKATCHEWAN***

CITY           SKY/WX    TMP DP  RH WIND       PRES   REMARKS
ESTEVAN        CLOUDY    37  27  65 SW9       29.52F
KINDERSLEY     CLOUDY    36  32  87 W9        29.58F
LLOYDMINSTER   MOSUNNY   37  30  75 W18       29.52R
PRINCE ALBERT  LGT SNOW  23  21  93 E8        29.50F WCI  14
REGINA         CLOUDY    37  30  75 W7        29.50F
YORKTON        LGT SNOW  28  27  93 SE9       29.48F WCI  20
N. BATTLEFORD  MOSUNNY   39  32  75 W15       29.52F



USA.gov is the U.S. government's official web portal to all federal, state and local government web resources and services.